CDT,Max TemperatureF,Mean TemperatureF,Min TemperatureF,Max Dew PointF,MeanDew PointF,Min DewpointF,Max Humidity, Mean Humidity, Min Humidity, Max Sea Level PressureIn, Mean Sea Level PressureIn, Min Sea Level PressureIn, Max VisibilityMiles, Mean VisibilityMiles, Min VisibilityMiles, Max Wind SpeedMPH, Mean Wind SpeedMPH, Max Gust SpeedMPH,PrecipitationIn, CloudCover, Events, WindDirDegrees
2013-6-1,70,63,56,62,56,49,87,74,60,29.93,29.73,29.61,10,9,1,26,13,33,0.07,6,Rain,273
2013-6-2,67,60,52,49,45,42,77,60,42,30.07,30.02,29.93,10,10,10,23,9,29,0.00,5,,345
2013-6-3,72,60,47,50,48,44,86,64,41,30.09,30.01,29.94,10,10,10,20,8,23,0.00,0,,152
2013-6-4,67,62,57,62,56,50,87,78,69,30.05,30.00,29.95,10,9,1,22,10,27,0.40,8,Rain-Thunderstorm,116
2013-6-5,72,65,58,62,59,51,93,75,57,30.01,29.97,29.92,10,8,2,14,6,20,0.07,7,Rain-Thunderstorm,4
2013-6-6,72,63,53,55,52,50,89,69,49,29.98,29.94,29.91,10,10,10,18,8,24,0.00,3,,338
2013-6-7,72,63,53,54,50,47,93,69,45,30.01,29.98,29.92,10,8,4,13,5,17,0.00,5,,335
2013-6-8,75,65,54,61,55,50,89,69,49,29.94,29.87,29.77,10,10,5,18,9,24,0.20,6,Rain,141
2013-6-9,74,69,63,61,60,58,93,77,61,29.78,29.74,29.70,10,10,7,20,11,25,0.08,7,Rain,214
2013-6-10,79,69,59,63,60,58,100,78,56,29.89,29.82,29.75,10,6,0,13,5,15,T,5,Fog,293
2013-6-11,87,77,66,72,67,62,81,69,57,29.88,29.80,29.73,10,10,10,20,8,24,T,6,Rain,117
2013-6-12,91,79,67,72,67,55,82,67,52,29.86,29.75,29.67,10,10,7,35,16,45,0.16,5,Rain-Thunderstorm,228
2013-6-13,84,74,63,60,56,52,78,57,36,30.04,29.99,29.89,10,10,10,17,6,23,0.00,3,,338
2013-6-14,78,72,65,65,60,56,87,72,57,30.04,29.99,29.85,10,8,2,31,11,38,1.24,7,Rain-Thunderstorm,136
2013-6-15,82,74,65,70,65,61,93,78,62,30.02,29.91,29.85,10,10,4,25,8,33,0.07,7,Rain-Thunderstorm,185
2013-6-16,88,78,68,66,59,48,87,58,28,29.96,29.93,29.91,10,10,9,13,5,17,0.00,6,,299
2013-6-17,90,77,63,62,56,51,87,57,27,29.96,29.93,29.88,10,10,10,17,7,23,0.00,4,,313
2013-6-18,86,75,64,61,56,51,73,54,34,29.99,29.96,29.94,10,10,10,14,7,18,0.00,2,,331
2013-6-19,85,76,66,66,62,58,81,62,43,30.05,30.00,29.96,10,10,10,17,10,27,0.00,5,,146
2013-6-20,89,79,69,67,64,61,78,61,44,30.01,29.96,29.90,10,10,10,25,14,33,0.00,3,,161
2013-6-21,90,84,77,75,70,66,79,69,59,29.98,29.90,29.83,10,10,10,25,14,32,0.06,6,Rain-Thunderstorm,169
2013-6-22,92,84,76,73,70,64,79,66,52,29.97,29.88,29.82,10,10,10,21,11,26,T,2,,194
2013-6-23,82,75,67,71,67,63,93,76,58,29.98,29.88,29.81,10,9,2,32,10,40,0.43,7,Rain-Thunderstorm,176
2013-6-24,80,75,70,72,68,64,93,80,67,29.96,29.89,29.80,10,9,1,33,10,41,0.39,7,Rain-Thunderstorm,160
2013-6-25,89,81,72,74,71,67,93,72,50,29.81,29.75,29.69,10,10,10,18,10,24,T,7,Thunderstorm,167
2013-6-26,93,84,75,75,69,62,87,63,38,29.83,29.72,29.64,10,10,9,25,9,30,T,3,,262
2013-6-27,88,78,67,69,65,58,84,60,36,29.93,29.87,29.83,10,10,10,17,8,22,T,3,Rain,286
2013-6-28,88,80,71,62,56,50,68,49,29,29.87,29.82,29.76,10,10,10,32,15,41,0.00,1,,328
2013-6-29,79,73,67,63,57,54,68,57,46,29.90,29.79,29.75,10,9,2,25,14,34,0.06,4,Rain,350
2013-6-30,81,72,62,57,52,45,78,55,31,30.06,29.99,29.91,10,9,6,20,10,26,0.00,4,,20